This is the latest recevied weather packets stored in our database for station/object KD2ZLA. If no packets are shown the sender has not sent any weather packets the latest 10 day(s).
| Time | Temp. | Humidity | Pressure | Rain* | Wind** | Luminosity | Snow |
|---|---|---|---|---|---|---|---|
| 1778037779 | 7.78° C | 91% | 1009.4 hPa | 1.27 mm | - | 0 W/m² | - |
| 1778037475 | 7.78° C | 91% | 1009.2 hPa | 1.27 mm | - | 0 W/m² | - |
| 1778037173 | 8.33° C | 91% | 1009.2 hPa | 1.27 mm | - | 0 W/m² | - |
| 1778036871 | 8.33° C | 91% | 1009.2 hPa | 0.51 mm | - | 0 W/m² | - |
| 1778036569 | 8.33° C | 92% | 1009.1 hPa | 0 mm | - | 0 W/m² | - |
| 1778036265 | 8.33° C | 92% | 1009.2 hPa | 0.51 mm | - | 0 W/m² | - |
| 1778035961 | 8.33° C | 92% | 1008.7 hPa | 0.51 mm | - | 0 W/m² | - |
| 1778035659 | 8.33° C | 92% | 1008.8 hPa | 0 mm | - | 0 W/m² | - |
| 1778035355 | 8.33° C | 92% | 1008.8 hPa | 0 mm | - | 0 W/m² | - |
| 1778035051 | 8.33° C | 92% | 1008.6 hPa | 0.51 mm | - | 0 W/m² | - |
| 1778034749 | 8.33° C | 93% | 1008.7 hPa | 0 mm | - | 0 W/m² | - |
| 1778034445 | 8.33° C | 93% | 1008.6 hPa | 0.51 mm | - | 0 W/m² | - |
| 1778034143 | 8.89° C | 93% | 1008.7 hPa | 1.27 mm | - | 0 W/m² | - |
| 1778033841 | 8.89° C | 93% | 1008.7 hPa | 1.78 mm | - | 0 W/m² | - |
| 1778033538 | 8.89° C | 93% | 1008.7 hPa | 2.29 mm | - | 0 W/m² | - |
| 1778033234 | 8.89° C | 93% | 1008.8 hPa | 3.05 mm | - | 0 W/m² | - |
| 1778032933 | 8.89° C | 93% | 1008.7 hPa | 3.05 mm | - | 0 W/m² | - |
| 1778032630 | 8.89° C | 93% | 1008.7 hPa | 2.29 mm | - | 0 W/m² | - |
| 1778032327 | 8.89° C | 93% | 1008.7 hPa | 2.29 mm | - | 0 W/m² | - |
| 1778032024 | 8.89° C | 93% | 1008.8 hPa | 2.29 mm | - | 0 W/m² | - |
| 1778031720 | 8.89° C | 93% | 1008.9 hPa | 3.05 mm | - | 0 W/m² | - |
| 1778031418 | 8.89° C | 93% | 1009.1 hPa | 2.29 mm | - | 0 W/m² | - |
| 1778031115 | 9.44° C | 93% | 1008.9 hPa | 2.29 mm | - | 0 W/m² | - |
| 1778030811 | 9.44° C | 93% | 1008.8 hPa | 2.29 mm | - | 0 W/m² | - |
| 1778030508 | 9.44° C | 92% | 1008.7 hPa | 1.78 mm | - | 0 W/m² | - |
* Rain latest hour (hover to see other rain measurements)
** Current wind speed in m/s (hover to see current wind gust speed)